Location: ????????
(56.1167°N, 38.6333°E)
Time: 21:30:27
(UTC+00:00)

GEOS 3 Rocket - Pass Details

Date: 18 November 2025
Orbit: 771 x 842 km, 115.0° (Epoch: 06 December)

Event Time Altitude Azimuth Distance (km) Brightness Sun altitude
Exits shadow 14:25:56 11° 49° (NE) 2,409 5.5 -10.0°
Maximum altitude 14:30:53 46° 338° (NNW) 1,125 4.4 -10.6°
Drops below altitude 10° 14:35:59 10° 267° (W) 2,464 7.5 -11.3°
Sets 14:38:23 0° 261° (W) 3,400 8.8 -11.6°
